User: anonymous   Login
Location: Unspecified
(0.0000°N, 0.0000°E)
Time: 01:03:42
(UTC+00:00)
Language:

NOSS 3-4 (A) - Orbit

View from above orbital plane
View from above orbital plane
View from above satellite
View from above satellite

Ground track
Ground track

The orbit data is extracted from the following two-line orbital elements,

1 31701U 07027A   23078.15988763 0.00000000  00000-0  00000-0 0    08
2 31701  63.3851 120.8173 0361795  20.8662 339.2159 13.40864559    04
Epoch (UTC): 19 March 2023 03:50:14
Eccentricity: 0.0361795
inclination: 63.3851°
perigee height: 835 km
apogee height: 1377 km
right ascension of ascending node: 120.8173°
argument of perigee: 20.8662°
revolutions per day: 13.40864559
mean anomaly at epoch: 339.2159°
orbit number at epoch: 0

The dashed part of the orbit path shows where the satellite is in the earth's shadow,  

DLR